Virginia — WCW4062 — position and weather

sailwx.info

Track history (hours):
 
Tides and Currents Weather Stations Pressure Air Temp Water Temp Dewpoint Dewpoint Depression Visibility Wind Speed Wind Dir Waves Ship Positions

Virginia

Owner: WEEKS MARINE, INC., CRANFORD, NJ. More information available from US FCC via Universal Licensing System and Coast Guard Vessel Documentation Center.

Last reported at 2014-Nov-21 23:33 UTC. Time now 2014-Nov-23 18:44 UTC.
Position N 39°33' W 074°12'.

MMSI: 366939110.

Date/timePositionNaut miles runAvg speedWind from/ knotsBaromVisibWave heightAir tempDewpointWater temp
2014-Nov-21 23:33N 39°33' W 074°12'6 6.1
2014-Nov-21 22:32N 39°39' W 074°08'6 6.1
2014-Nov-21 21:33N 39°44' W 074°05'6 6.1
2014-Nov-21 20:33N 39°50' W 074°03'43 5.9
2014-Nov-21 13:10N 40°33' W 074°02'3 5.7
2014-Nov-21 12:33N 40°37' W 074°03'4 3.7
2014-Nov-21 11:33N 40°40' W 074°04'0 0.2
2014-Nov-21 10:33N 40°41' W 074°04'0 0.0
2014-Nov-21 09:33N 40°41' W 074°04'0 0.0
2014-Nov-21 08:33N 40°41' W 074°04'0 0.0
2014-Nov-21 07:34N 40°41' W 074°04'0 0.0
2014-Nov-21 06:33N 40°41' W 074°04'0 0.0
2014-Nov-21 05:33N 40°41' W 074°04'0 0.0
2014-Nov-21 04:33N 40°41' W 074°04'0 0.0
2014-Nov-21 03:33N 40°41' W 074°04'0 0.0
2014-Nov-21 02:33N 40°41' W 074°04'1 1.0
2014-Nov-21 01:33N 40°41' W 074°03'4 4.2
2014-Nov-21 00:33N 40°43' W 073°58'3 3.4
2014-Nov-20 23:33N 40°46' W 073°57'1 0.9
2014-Nov-20 22:33N 40°47' W 073°56'2 1.2
2014-Nov-20 21:16N 40°48' W 073°54'0 0.0
2014-Nov-20 19:32N 40°48' W 073°54'0 0.0
2014-Nov-20 18:33N 40°48' W 073°54'0 0.0
2014-Nov-20 17:24N 40°48' W 073°54'0 0.0
2014-Nov-20 16:31N 40°48' W 073°54'0 0.0
2014-Nov-20 15:06N 40°48' W 073°54'0 0.0
2014-Nov-20 14:32N 40°48' W 073°54'0 0.1
2014-Nov-20 13:12N 40°48' W 073°54'2 0.9
2014-Nov-20 11:32N 40°47' W 073°55'6 5.8
2014-Nov-20 10:33N 40°42' W 073°60'4 3.8
2014-Nov-20 09:33N 40°41' W 074°04'0 0.0
2014-Nov-20 08:33N 40°41' W 074°04'0 0.0
2014-Nov-20 07:33N 40°41' W 074°04'0 0.0
2014-Nov-20 06:33N 40°41' W 074°04'0 0.0
2014-Nov-20 05:33N 40°41' W 074°04'0 0.0
2014-Nov-20 04:33N 40°41' W 074°04'0 0.0
2014-Nov-20 03:33N 40°41' W 074°04'0 0.0
2014-Nov-20 02:33N 40°41' W 074°04'0 0.0
2014-Nov-20 01:33N 40°41' W 074°04'0 0.0
2014-Nov-20 00:33N 40°41' W 074°04'0 0.0
2014-Nov-19 23:33N 40°41' W 074°04'0 0.1
2014-Nov-19 22:33N 40°40' W 074°04'0 0.1
2014-Nov-19 21:33N 40°41' W 074°04'0 0.0
2014-Nov-19 20:33N 40°41' W 074°04'0 0.1
2014-Nov-19 19:33N 40°41' W 074°04'0 0.1
2014-Nov-19 18:33N 40°41' W 074°04'0 0.0
2014-Nov-19 17:33N 40°41' W 074°04'0 0.0
2014-Nov-19 16:33N 40°41' W 074°04'0 0.0
2014-Nov-19 15:33N 40°41' W 074°04'0 0.0
2014-Nov-19 14:33N 40°41' W 074°04'0 0.0
2014-Nov-19 13:33N 40°41' W 074°04'0 0.0
2014-Nov-19 12:33N 40°41' W 074°04'0 0.0
2014-Nov-19 11:33N 40°41' W 074°04'0 0.0
2014-Nov-19 10:33N 40°41' W 074°04'0 0.0
2014-Nov-19 09:33N 40°41' W 074°04'0 0.0
2014-Nov-19 08:33N 40°41' W 074°04'0 0.0
2014-Nov-19 07:33N 40°41' W 074°04'0 0.0
2014-Nov-19 06:33N 40°41' W 074°04'0 0.0
2014-Nov-19 05:33N 40°41' W 074°04'0 0.0
2014-Nov-19 04:33N 40°41' W 074°04'0 0.0
2014-Nov-19 03:33N 40°41' W 074°04'0 0.2
2014-Nov-19 02:33N 40°40' W 074°04'1 0.6
2014-Nov-19 01:33N 40°40' W 074°05'1 0.9
2014-Nov-19 00:33N 40°40' W 074°04'6 5.7
2014-Nov-18 23:33N 40°38' W 074°11'0 0.0
2014-Nov-18 21:08N 40°38' W 074°11'2 3.1
2014-Nov-18 20:33N 40°39' W 074°09'0 0.3
2014-Nov-18 19:33N 40°39' W 074°09'3 3.5
2014-Nov-18 18:33N 40°39' W 074°04'1 1.3
2014-Nov-18 17:33N 40°41' W 074°04'0 0.0
2014-Nov-18 16:33N 40°41' W 074°04'0 0.0
2014-Nov-18 15:33N 40°41' W 074°04'0 0.0
2014-Nov-18 14:33N 40°41' W 074°04'0 0.1
2014-Nov-18 13:33N 40°41' W 074°04'0 0.0
2014-Nov-18 12:33N 40°41' W 074°04'0 0.0
2014-Nov-18 11:33N 40°41' W 074°04'0 0.0
2014-Nov-18 10:33N 40°41' W 074°04'0 0.0
2014-Nov-18 09:33N 40°41' W 074°04'0 0.0
2014-Nov-18 08:33N 40°41' W 074°04'0 0.0
2014-Nov-18 07:33N 40°41' W 074°04'0 0.0
2014-Nov-18 06:33N 40°41' W 074°04'0 0.0
2014-Nov-18 05:33N 40°41' W 074°04'0 0.0
2014-Nov-18 04:33N 40°41' W 074°04'0 0.0
2014-Nov-18 03:33N 40°41' W 074°04'0 0.0
2014-Nov-18 02:33N 40°41' W 074°04'0 0.0
2014-Nov-18 01:33N 40°41' W 074°04'0 0.0
2014-Nov-18 00:33N 40°41' W 074°04'0 0.0
2014-Nov-17 23:33N 40°41' W 074°04'0 0.0
2014-Nov-17 22:33N 40°41' W 074°04'0 0.0
2014-Nov-17 21:33N 40°41' W 074°04'0 0.0
2014-Nov-17 20:33N 40°41' W 074°04'0 0.0
2014-Nov-17 19:33N 40°41' W 074°04'0 0.0
2014-Nov-17 18:33N 40°41' W 074°04'0 0.0
2014-Nov-17 17:33N 40°41' W 074°04'0 0.0
2014-Nov-17 16:33N 40°41' W 074°04'0 0.0
2014-Nov-17 15:33N 40°41' W 074°04'0 0.0
2014-Nov-17 14:33N 40°41' W 074°04'0 0.0
2014-Nov-17 13:33N 40°41' W 074°04'0 0.0
2014-Nov-17 12:33N 40°41' W 074°04'0 0.0
2014-Nov-17 11:33N 40°41' W 074°04'0 0.0
2014-Nov-17 10:33N 40°41' W 074°04'0 0.0
2014-Nov-17 09:33N 40°41' W 074°04'0 0.0
2014-Nov-17 08:33N 40°41' W 074°04'0 0.0
2014-Nov-17 07:33N 40°41' W 074°04'3 2.5
2014-Nov-17 06:33N 40°39' W 074°07'4 3.5
2014-Nov-17 05:30N 40°38' W 074°12'6 6.1
2014-Nov-17 04:33N 40°41' W 074°04'0 0.0
2014-Nov-17 03:33N 40°41' W 074°04'0 0.2
2014-Nov-17 02:33N 40°40' W 074°04'6 6.4
2014-Nov-17 01:33N 40°34' W 074°02'8 7.0
2014-Nov-17 00:24N 40°27' W 073°57'8 8.8
2014-Nov-16 23:31N 40°19' W 073°57'29 9.0
2014-Nov-16 20:20N 39°51' W 074°03'7 8.9
2014-Nov-16 19:33N 39°44' W 074°05'9 8.9
2014-Nov-16 18:33N 39°36' W 074°09'63 5.2
2014-Nov-16 06:30N 39°24' W 075°30'8 8.8
2014-Nov-16 05:33N 39°32' W 075°33'9 9.1
2014-Nov-16 04:33N 39°41' W 075°32'8 1.3
2014-Nov-15 22:14N 39°48' W 075°26'3 4.6
2014-Nov-15 21:32N 39°45' W 075°28'4 4.6
2014-Nov-15 20:33N 39°41' W 075°31'4 4.1
2014-Nov-15 19:33N 39°38' W 075°34'3 3.2
2014-Nov-15 18:33N 39°35' W 075°33'3 3.3
2014-Nov-15 17:33N 39°31' W 075°33'3 3.2
2014-Nov-15 16:33N 39°28' W 075°34'3 2.7
2014-Nov-15 15:33N 39°26' W 075°32'3 2.8
2014-Nov-15 14:33N 39°24' W 075°30'4 3.2
2014-Nov-15 13:25N 39°21' W 075°27'2 0.1
2014-Nov-14 22:28N 39°22' W 075°28'6 7.0
2014-Nov-14 21:33N 39°27' W 075°33'6 6.3
2014-Nov-14 20:33N 39°33' W 075°33'6 5.8
2014-Nov-14 19:33N 39°39' W 075°33'8 7.4
2014-Nov-14 18:29N 39°46' W 075°28'3 0.1
2014-Nov-13 12:21N 39°48' W 075°25'3 4.0
2014-Nov-13 11:33N 39°46' W 075°28'4 3.5
2014-Nov-13 10:33N 39°42' W 075°30'5 5.4
2014-Nov-13 09:33N 39°38' W 075°34'6 5.8
2014-Nov-13 08:33N 39°32' W 075°33'6 5.7
2014-Nov-13 07:33N 39°27' W 075°33'5 4.8
2014-Nov-13 06:33N 39°23' W 075°29'6 6.0
2014-Nov-13 05:33N 39°18' W 075°24'41 2.5
2014-Nov-12 13:31N 39°11' W 074°32'4 4.4
2014-Nov-12 12:30N 39°14' W 074°28'4 4.3
2014-Nov-12 11:33N 39°17' W 074°25'4 4.4
2014-Nov-12 10:33N 39°21' W 074°22'4 4.5
2014-Nov-12 09:33N 39°24' W 074°18'5 4.5
2014-Nov-12 08:33N 39°28' W 074°15'4 4.4
2014-Nov-12 07:33N 39°32' W 074°12'4 4.3
2014-Nov-12 06:33N 39°35' W 074°09'4 4.3
2014-Nov-12 05:33N 39°39' W 074°06'4 4.3
2014-Nov-12 04:33N 39°43' W 074°04'4 4.1
2014-Nov-12 03:33N 39°47' W 074°04'4 4.2
2014-Nov-12 02:32N 39°52' W 074°03'4 4.2
2014-Nov-12 01:33N 39°56' W 074°03'4 4.1
2014-Nov-12 00:33N 39°60' W 074°02'4 4.1
2014-Nov-11 23:34N 40°04' W 074°01'  
Track history (hours):
 
Tides and Currents Weather Stations Pressure Air Temp Water Temp Dewpoint Dewpoint Depression Visibility Wind Speed Wind Dir Waves Ship Positions

Virginia

Owner: WEEKS MARINE, INC., CRANFORD, NJ. More information available from US FCC via Universal Licensing System and Coast Guard Vessel Documentation Center.

Last reported at 2014-Nov-21 23:33 UTC. Time now 2014-Nov-23 18:44 UTC.
Position N 39°33' W 074°12'.

MMSI: 366939110.

Date/timePositionNaut miles runAvg speedWind from/ knotsBaromVisibWave heightAir tempDewpointWater temp
2014-Nov-21 23:33N 39°33' W 074°12'6 6.1
2014-Nov-21 22:32N 39°39' W 074°08'6 6.1
2014-Nov-21 21:33N 39°44' W 074°05'6 6.1
2014-Nov-21 20:33N 39°50' W 074°03'43 5.9
2014-Nov-21 13:10N 40°33' W 074°02'3 5.7
2014-Nov-21 12:33N 40°37' W 074°03'4 3.7
2014-Nov-21 11:33N 40°40' W 074°04'0 0.2
2014-Nov-21 10:33N 40°41' W 074°04'0 0.0
2014-Nov-21 09:33N 40°41' W 074°04'0 0.0
2014-Nov-21 08:33N 40°41' W 074°04'0 0.0
2014-Nov-21 07:34N 40°41' W 074°04'0 0.0
2014-Nov-21 06:33N 40°41' W 074°04'0 0.0
2014-Nov-21 05:33N 40°41' W 074°04'0 0.0
2014-Nov-21 04:33N 40°41' W 074°04'0 0.0
2014-Nov-21 03:33N 40°41' W 074°04'0 0.0
2014-Nov-21 02:33N 40°41' W 074°04'1 1.0
2014-Nov-21 01:33N 40°41' W 074°03'4 4.2
2014-Nov-21 00:33N 40°43' W 073°58'3 3.4
2014-Nov-20 23:33N 40°46' W 073°57'1 0.9
2014-Nov-20 22:33N 40°47' W 073°56'2 1.2
2014-Nov-20 21:16N 40°48' W 073°54'0 0.0
2014-Nov-20 19:32N 40°48' W 073°54'0 0.0
2014-Nov-20 18:33N 40°48' W 073°54'0 0.0
2014-Nov-20 17:24N 40°48' W 073°54'0 0.0
2014-Nov-20 16:31N 40°48' W 073°54'0 0.0
2014-Nov-20 15:06N 40°48' W 073°54'0 0.0
2014-Nov-20 14:32N 40°48' W 073°54'0 0.1
2014-Nov-20 13:12N 40°48' W 073°54'2 0.9
2014-Nov-20 11:32N 40°47' W 073°55'6 5.8
2014-Nov-20 10:33N 40°42' W 073°60'4 3.8
2014-Nov-20 09:33N 40°41' W 074°04'0 0.0
2014-Nov-20 08:33N 40°41' W 074°04'0 0.0
2014-Nov-20 07:33N 40°41' W 074°04'0 0.0
2014-Nov-20 06:33N 40°41' W 074°04'0 0.0
2014-Nov-20 05:33N 40°41' W 074°04'0 0.0
2014-Nov-20 04:33N 40°41' W 074°04'0 0.0
2014-Nov-20 03:33N 40°41' W 074°04'0 0.0
2014-Nov-20 02:33N 40°41' W 074°04'0 0.0
2014-Nov-20 01:33N 40°41' W 074°04'0 0.0
2014-Nov-20 00:33N 40°41' W 074°04'0 0.0
2014-Nov-19 23:33N 40°41' W 074°04'0 0.1
2014-Nov-19 22:33N 40°40' W 074°04'0 0.1
2014-Nov-19 21:33N 40°41' W 074°04'0 0.0
2014-Nov-19 20:33N 40°41' W 074°04'0 0.1
2014-Nov-19 19:33N 40°41' W 074°04'0 0.1
2014-Nov-19 18:33N 40°41' W 074°04'0 0.0
2014-Nov-19 17:33N 40°41' W 074°04'0 0.0
2014-Nov-19 16:33N 40°41' W 074°04'0 0.0
2014-Nov-19 15:33N 40°41' W 074°04'0 0.0
2014-Nov-19 14:33N 40°41' W 074°04'0 0.0
2014-Nov-19 13:33N 40°41' W 074°04'0 0.0
2014-Nov-19 12:33N 40°41' W 074°04'0 0.0
2014-Nov-19 11:33N 40°41' W 074°04'0 0.0
2014-Nov-19 10:33N 40°41' W 074°04'0 0.0
2014-Nov-19 09:33N 40°41' W 074°04'0 0.0
2014-Nov-19 08:33N 40°41' W 074°04'0 0.0
2014-Nov-19 07:33N 40°41' W 074°04'0 0.0
2014-Nov-19 06:33N 40°41' W 074°04'0 0.0
2014-Nov-19 05:33N 40°41' W 074°04'0 0.0
2014-Nov-19 04:33N 40°41' W 074°04'0 0.0
2014-Nov-19 03:33N 40°41' W 074°04'0 0.2
2014-Nov-19 02:33N 40°40' W 074°04'1 0.6
2014-Nov-19 01:33N 40°40' W 074°05'1 0.9
2014-Nov-19 00:33N 40°40' W 074°04'6 5.7
2014-Nov-18 23:33N 40°38' W 074°11'0 0.0
2014-Nov-18 21:08N 40°38' W 074°11'2 3.1
2014-Nov-18 20:33N 40°39' W 074°09'0 0.3
2014-Nov-18 19:33N 40°39' W 074°09'3 3.5
2014-Nov-18 18:33N 40°39' W 074°04'1 1.3
2014-Nov-18 17:33N 40°41' W 074°04'0 0.0
2014-Nov-18 16:33N 40°41' W 074°04'0 0.0
2014-Nov-18 15:33N 40°41' W 074°04'0 0.0
2014-Nov-18 14:33N 40°41' W 074°04'0 0.1
2014-Nov-18 13:33N 40°41' W 074°04'0 0.0
2014-Nov-18 12:33N 40°41' W 074°04'0 0.0
2014-Nov-18 11:33N 40°41' W 074°04'0 0.0
2014-Nov-18 10:33N 40°41' W 074°04'0 0.0
2014-Nov-18 09:33N 40°41' W 074°04'0 0.0
2014-Nov-18 08:33N 40°41' W 074°04'0 0.0
2014-Nov-18 07:33N 40°41' W 074°04'0 0.0
2014-Nov-18 06:33N 40°41' W 074°04'0 0.0
2014-Nov-18 05:33N 40°41' W 074°04'0 0.0
2014-Nov-18 04:33N 40°41' W 074°04'0 0.0
2014-Nov-18 03:33N 40°41' W 074°04'0 0.0
2014-Nov-18 02:33N 40°41' W 074°04'0 0.0
2014-Nov-18 01:33N 40°41' W 074°04'0 0.0
2014-Nov-18 00:33N 40°41' W 074°04'0 0.0
2014-Nov-17 23:33N 40°41' W 074°04'0 0.0
2014-Nov-17 22:33N 40°41' W 074°04'0 0.0
2014-Nov-17 21:33N 40°41' W 074°04'0 0.0
2014-Nov-17 20:33N 40°41' W 074°04'0 0.0
2014-Nov-17 19:33N 40°41' W 074°04'0 0.0
2014-Nov-17 18:33N 40°41' W 074°04'0 0.0
2014-Nov-17 17:33N 40°41' W 074°04'0 0.0
2014-Nov-17 16:33N 40°41' W 074°04'0 0.0
2014-Nov-17 15:33N 40°41' W 074°04'0 0.0
2014-Nov-17 14:33N 40°41' W 074°04'0 0.0
2014-Nov-17 13:33N 40°41' W 074°04'0 0.0
2014-Nov-17 12:33N 40°41' W 074°04'0 0.0
2014-Nov-17 11:33N 40°41' W 074°04'0 0.0
2014-Nov-17 10:33N 40°41' W 074°04'0 0.0
2014-Nov-17 09:33N 40°41' W 074°04'0 0.0
2014-Nov-17 08:33N 40°41' W 074°04'0 0.0
2014-Nov-17 07:33N 40°41' W 074°04'3 2.5
2014-Nov-17 06:33N 40°39' W 074°07'4 3.5
2014-Nov-17 05:30N 40°38' W 074°12'6 6.1
2014-Nov-17 04:33N 40°41' W 074°04'0 0.0
2014-Nov-17 03:33N 40°41' W 074°04'0 0.2
2014-Nov-17 02:33N 40°40' W 074°04'6 6.4
2014-Nov-17 01:33N 40°34' W 074°02'8 7.0
2014-Nov-17 00:24N 40°27' W 073°57'8 8.8
2014-Nov-16 23:31N 40°19' W 073°57'29 9.0
2014-Nov-16 20:20N 39°51' W 074°03'7 8.9
2014-Nov-16 19:33N 39°44' W 074°05'9 8.9
2014-Nov-16 18:33N 39°36' W 074°09'63 5.2
2014-Nov-16 06:30N 39°24' W 075°30'8 8.8
2014-Nov-16 05:33N 39°32' W 075°33'9 9.1
2014-Nov-16 04:33N 39°41' W 075°32'8 1.3
2014-Nov-15 22:14N 39°48' W 075°26'3 4.6
2014-Nov-15 21:32N 39°45' W 075°28'4 4.6
2014-Nov-15 20:33N 39°41' W 075°31'4 4.1
2014-Nov-15 19:33N 39°38' W 075°34'3 3.2
2014-Nov-15 18:33N 39°35' W 075°33'3 3.3
2014-Nov-15 17:33N 39°31' W 075°33'3 3.2
2014-Nov-15 16:33N 39°28' W 075°34'3 2.7
2014-Nov-15 15:33N 39°26' W 075°32'3 2.8
2014-Nov-15 14:33N 39°24' W 075°30'4 3.2
2014-Nov-15 13:25N 39°21' W 075°27'2 0.1
2014-Nov-14 22:28N 39°22' W 075°28'6 7.0
2014-Nov-14 21:33N 39°27' W 075°33'6 6.3
2014-Nov-14 20:33N 39°33' W 075°33'6 5.8
2014-Nov-14 19:33N 39°39' W 075°33'8 7.4
2014-Nov-14 18:29N 39°46' W 075°28'3 0.1
2014-Nov-13 12:21N 39°48' W 075°25'3 4.0
2014-Nov-13 11:33N 39°46' W 075°28'4 3.5
2014-Nov-13 10:33N 39°42' W 075°30'5 5.4
2014-Nov-13 09:33N 39°38' W 075°34'6 5.8
2014-Nov-13 08:33N 39°32' W 075°33'6 5.7
2014-Nov-13 07:33N 39°27' W 075°33'5 4.8
2014-Nov-13 06:33N 39°23' W 075°29'6 6.0
2014-Nov-13 05:33N 39°18' W 075°24'41 2.5
2014-Nov-12 13:31N 39°11' W 074°32'4 4.4
2014-Nov-12 12:30N 39°14' W 074°28'4 4.3
2014-Nov-12 11:33N 39°17' W 074°25'4 4.4
2014-Nov-12 10:33N 39°21' W 074°22'4 4.5
2014-Nov-12 09:33N 39°24' W 074°18'5 4.5
2014-Nov-12 08:33N 39°28' W 074°15'4 4.4
2014-Nov-12 07:33N 39°32' W 074°12'4 4.3
2014-Nov-12 06:33N 39°35' W 074°09'4 4.3
2014-Nov-12 05:33N 39°39' W 074°06'4 4.3
2014-Nov-12 04:33N 39°43' W 074°04'4 4.1
2014-Nov-12 03:33N 39°47' W 074°04'4 4.2
2014-Nov-12 02:32N 39°52' W 074°03'4 4.2
2014-Nov-12 01:33N 39°56' W 074°03'4 4.1
2014-Nov-12 00:33N 39°60' W 074°02'4 4.1
2014-Nov-11 23:34N 40°04' W 074°01'  

Dump ship's entire track history